KUIPER-00032

导读 | 星芒AI

KUIPER-00032 是一颗小型天然卫星,属于柯伊伯带天体,位于海王星轨道之外的太阳系外围区域。该卫星直径约为 12 公里,表面呈暗红色,推测富含有机物质。其轨道呈椭圆形,公转周期较长,与太阳系早期形成过程密切相关。科学家认为 KUIPER-00032 可能保存了太阳系诞生初期的原始物质,对研究行星演化和生命起源具有重要价值。目前,该天体尚未被探测器近距离观测,主要依赖望远镜进行远程研究。

基本信息
目录编号:
63745
目录名称:
KUIPER-00032
国际标识:
2025-088X
轨道中心:
EARTH
卫星名称:
KUIPER-00032
卫星全名:
KUIPER-00032
卫星状态:
在轨 (已飞行309 天)
发射日期:
2025-04-28 UTC
国别 :
美国 (US)
星等 :
--
轨道信息
数据来源 国际轨道数据
星历时间: 2026-03-02T17:17:10+0800
15小时前
查看轨道信息
半长轴: 6833.048km
偏心率: 0.0005241
轨道倾角: 51.870°
近地点辐角 87.056°
升交点赤经 59.528°
平近点角 273.103°
近地点: 451.329km
远地点: 458.493km
周期: 93.687分钟
每日圈数: 15.370256
详细信息
使用方式:
暂无
2D轨道图
3D轨道图
轨道高度分析图
轨道倾角分析图
轨道综合分析图
查看轨道综合分析图